Naples, Italy

1:38 PM CEST on June 27, 2017 (GMT +0200)
Capodichino Mil

Weather History for LIRN - February, 2012

Change the Weather History Date:

Saturday, February 4, 2012

  Actual Average Record
Temperature  
Mean Temperature 40 °F -  
Max Temperature 46 °F 56 °F 86 °F (1999)
Min Temperature 33 °F 40 °F 33 °F (1999)
Degree Days  
Heating Degree Days 26    
Moisture  
Dew Point 33 °F    
Average Humidity 76    
Maximum Humidity 93    
Minimum Humidity 57    
Precipitation  
Precipitation 0.00 in 0.13 in - ()
Sea Level Pressure  
Sea Level Pressure 29.86 in    
Wind  
Wind Speed 10 mph ()    
Max Wind Speed 20 mph    
Max Gust Speed 30 mph    
Visibility 5.0 miles    
Events Rain , Snow    
Averages and records for this station are not official NWS values.
T = Trace of Precipitation, MM = Missing Value Source: Averaged Metar Reports

Daily Weather History Graph

Daily Weather History Graph

Search for Another Location

Airport or City:

Trip Planner

Search our weather history database for the weather conditions in past years. The results will help you decide how hot, cold, wet, or windy it might be!

Date:

Astronomy

Feb. 04, 2012 Rise Set
Actual Time 7:10 AM CET 5:23 PM CET
Civil Twilight 6:41 AM CET 5:51 PM CET
Nautical Twilight 6:09 AM CET 6:24 PM CET
Astronomical Twilight 5:37 AM CET 6:56 PM CET
Moon 2:02 PM CET (2/4) 4:23 AM CET (2/4)
Length of Visible Light 11h 09m
Length of Day
10h 12m
Waxing Gibbous, 87% of the Moon is Illuminated
Feb 4
Waxing Gibbous
Feb 7
Full
Feb 14
Last Quarter
Feb 21
New
Mar 1
First Quarter

Hourly Weather History & Observations

Time (CET) Temp. Windchill Dew Point Humidity Pressure Visibility Wind Dir Wind Speed Gust Speed Precip Events Conditions
12:20 AM 39.2 °F 30.2 °F 35.6 °F 87% 29.65 in 3.1 mi ENE 17.3 mph - N/A Rain Rain
12:50 AM 37.4 °F 28.2 °F 33.8 °F 87% 29.65 in 5.0 mi ENE 16.1 mph - N/A Rain Light Rain
1:20 AM 39.2 °F 29.8 °F 33.8 °F 81% 29.62 in 3.1 mi ENE 18.4 mph - N/A Rain Rain
1:50 AM 37.4 °F 28.2 °F 33.8 °F 87% 29.62 in 3.1 mi ENE 16.1 mph - N/A Rain Rain
2:20 AM 39.2 °F 30.5 °F 33.8 °F 81% 29.62 in 6.2 mi NNE 16.1 mph - N/A Rain Light Rain
2:50 AM 39.2 °F 30.2 °F 33.8 °F 81% 29.62 in 6.2 mi ENE 17.3 mph - N/A Rain Light Rain
3:20 AM 39.2 °F 30.8 °F 33.8 °F 81% 29.62 in 6.2 mi ENE 15.0 mph - N/A   Mostly Cloudy
3:50 AM 39.2 °F 31.2 °F 32.0 °F 75% 29.62 in 6.2 mi NE 13.8 mph - N/A   Mostly Cloudy
4:20 AM 39.2 °F 31.6 °F 33.8 °F 81% 29.62 in 3.1 mi NE 12.7 mph 25.3 mph N/A Rain Rain
4:50 AM 39.2 °F 30.2 °F 32.0 °F 75% 29.62 in 3.1 mi ENE 17.3 mph - N/A Rain Light Rain
5:20 AM 39.2 °F 31.2 °F 32.0 °F 75% 29.62 in 3.1 mi NNE 13.8 mph 25.3 mph N/A Rain Light Rain
5:50 AM 39.2 °F 30.5 °F 33.8 °F 81% 29.65 in 2.5 mi NE 16.1 mph - N/A Rain Rain
6:20 AM 37.4 °F 27.8 °F 33.8 °F 87% 29.68 in 2.5 mi NNW 17.3 mph 29.9 mph N/A Rain Rain
6:50 AM 33.8 °F 22.8 °F 32.0 °F 93% 29.74 in 0.3 mi NNW 18.4 mph - N/A Snow Snow
7:20 AM 33.8 °F 22.5 °F 32.0 °F 93% 29.71 in 0.3 mi NNE 19.6 mph - N/A Rain Rain
7:50 AM 33.8 °F 25.3 °F 32.0 °F 93% 29.74 in 6.2 mi NNE 11.5 mph - N/A   Scattered Clouds
8:20 AM 35.6 °F 29.9 °F 33.8 °F 93% 29.77 in 6.2 mi North 6.9 mph - N/A   Scattered Clouds
8:50 AM 35.6 °F 29.2 °F 32.0 °F 87% 29.80 in 6.2 mi NNW 8.1 mph - N/A   Scattered Clouds
9:20 AM 37.4 °F 31.4 °F 33.8 °F 87% 29.83 in 6.2 mi NNW 8.1 mph - N/A   Scattered Clouds
9:50 AM 39.2 °F 34.2 °F 33.8 °F 81% 29.86 in 6.2 mi NW 6.9 mph - N/A   Mostly Cloudy
10:20 AM 41.0 °F 35.8 °F 33.8 °F 76% 29.86 in 6.2 mi NW 8.1 mph - N/A   Scattered Clouds
10:50 AM 41.0 °F 36.4 °F 33.8 °F 76% 29.89 in 6.2 mi NW 6.9 mph - N/A   Scattered Clouds
11:20 AM 41.0 °F 35.8 °F 35.6 °F 81% 29.89 in 6.2 mi NW 8.1 mph - N/A   Partly Cloudy
11:50 AM 41.0 °F 36.4 °F 33.8 °F 76% 29.92 in 6.2 mi West 6.9 mph - N/A   Mostly Cloudy
12:20 PM 42.8 °F 39.3 °F 33.8 °F 70% 29.92 in 6.2 mi NW 5.8 mph - N/A   Mostly Cloudy
12:50 PM 42.8 °F - 33.8 °F 70% 29.92 in 6.2 mi Variable 2.3 mph - N/A   Scattered Clouds
1:20 PM 44.6 °F 42.2 °F 33.8 °F 66% 29.92 in 6.2 mi NNE 4.6 mph - N/A   Scattered Clouds
1:50 PM 46.4 °F - 35.6 °F 66% 29.92 in 6.2 mi Variable 2.3 mph - N/A   Partly Cloudy
2:20 PM 44.6 °F 40.7 °F 32.0 °F 61% 29.95 in 6.2 mi WNW 6.9 mph - N/A   Scattered Clouds
2:50 PM 44.6 °F 40.2 °F 32.0 °F 61% 29.95 in 6.2 mi West 8.1 mph - N/A   Scattered Clouds
3:20 PM 46.4 °F 43.5 °F 32.0 °F 57% 29.98 in 6.2 mi WNW 5.8 mph - N/A   Scattered Clouds
3:50 PM 44.6 °F 41.4 °F 30.2 °F 57% 29.98 in 6.2 mi West 5.8 mph - N/A   Scattered Clouds
4:20 PM 44.6 °F 42.2 °F 32.0 °F 61% 29.98 in 6.2 mi West 4.6 mph - N/A   Partly Cloudy
4:50 PM 44.6 °F - 32.0 °F 61% 30.01 in 6.2 mi Variable 2.3 mph - N/A   Scattered Clouds
5:20 PM 42.8 °F 41.1 °F 32.0 °F 66% 30.01 in 6.2 mi West 3.5 mph - N/A   Scattered Clouds
5:50 PM 42.8 °F 40.1 °F 32.0 °F 66% 30.01 in 6.2 mi WSW 4.6 mph - N/A   Scattered Clouds
6:20 PM 41.0 °F 37.1 °F 32.0 °F 70% 30.04 in 6.2 mi West 5.8 mph - N/A   Partly Cloudy
6:50 PM 41.0 °F - 32.0 °F 70% 30.04 in - West 2.3 mph - N/A   Clear
7:20 PM 41.0 °F - 32.0 °F 70% 30.04 in - Variable 2.3 mph - N/A   Clear
7:50 PM 41.0 °F 39.0 °F 32.0 °F 70% 30.04 in - North 3.5 mph - N/A   Clear
8:20 PM 41.0 °F 39.0 °F 32.0 °F 70% 30.04 in - East 3.5 mph - N/A   Clear
8:50 PM 41.0 °F - 32.0 °F 70% 30.06 in 5.0 mi Variable 1.2 mph - N/A   Unknown
9:20 PM 37.4 °F - 32.0 °F 81% 30.06 in 5.0 mi North 1.2 mph - N/A   Unknown
9:50 PM 39.2 °F - 33.8 °F 81% 30.06 in 5.0 mi NNE 2.3 mph - N/A   Unknown
10:20 PM 39.2 °F 35.9 °F 33.8 °F 81% 30.06 in 5.0 mi NNE 4.6 mph - N/A   Unknown
10:50 PM 39.2 °F 37.0 °F 33.8 °F 81% 30.06 in 3.7 mi North 3.5 mph - N/A   Unknown
11:20 PM 39.2 °F 37.0 °F 33.8 °F 81% 30.06 in 3.7 mi North 3.5 mph - N/A   Unknown
11:50 PM 39.2 °F 35.0 °F 32.0 °F 75% 30.06 in 3.7 mi NNE 5.8 mph - N/A   Unknown